User: anonymous   Login
Location: Bovenkerk
(52.2915°N, 4.8336°E)
Time: 10:50:02
(UTC+00:00)
Language:

Iridium 4 Rocket - Orbit

View from above orbital plane
View from above orbital plane
View from above satellite
View from above satellite

Ground track
Ground track

The orbit data is extracted from the following two-line orbital elements,

1 24797U 97020F   20191.05356544  .00000132  00000-0  22639-4 0  9994
2 24797  86.8960 303.9243 0224684 189.1093 344.7925 14.44179684219272
Epoch (UTC): 09 July 2020 01:17:08
Eccentricity: 0.0224684
inclination: 86.8960°
perigee height: 584 km
apogee height: 905 km
right ascension of ascending node: 303.9243°
argument of perigee: 189.1093°
revolutions per day: 14.44179684
mean anomaly at epoch: 344.7925°
orbit number at epoch: 21927

The dashed part of the orbit path shows where the satellite is in the earth's shadow,  

DLR